Location: Brno
(49.2000°N, 16.6330°E)
Time: 18:59:25
(UTC+02:00)

Transit 4A - Pass Details

Date: 04 August 2021
Orbit: 871 x 974 km, 66.8° (Epoch: 16 September)

Event Time Altitude Azimuth Distance (km) Brightness Sun altitude
Rises 00:58:50 0° 225° (SW) 3,483 - -23.6°
Reaches altitude 10° 01:01:21 10° 229° (SW) 2,536 - -23.6°
Exits shadow 01:04:31 33° 240° (WSW) 1,448 8.6 -23.5°
Maximum altitude 01:07:10 63° 310° (NW) 972 8.1 -23.5°
Drops below altitude 10° 01:12:57 10° 32° (NNE) 2,528 11.0 -23.5°
Sets 01:15:28 0° 36° (NE) 3,471 11.8 -23.5°
